User: anonymous   Login
Location: Nebula Knoll Observatory
(43.6666°N, 71.0000°W)
Time: 08:02:51
(UTC-05:00)
Language:

Cosmos 1782 - Orbit

View from above orbital plane
View from above orbital plane
View from above satellite
View from above satellite

Ground track
Ground track

The orbit data is extracted from the following two-line orbital elements,

1 16986U 86074A   16038.13919420  .00000930  00000-0  62107-4 0  9994
2 16986  82.5051 243.5467 0010289 230.3727 129.6593 15.05816340596185
Epoch (UTC): 07 February 2016 03:20:26
Eccentricity: 0.0010289
inclination: 82.5051°
perigee height: 542 km
apogee height: 556 km
right ascension of ascending node: 243.5467°
argument of perigee: 230.3727°
revolutions per day: 15.05816340
mean anomaly at epoch: 129.6593°
orbit number at epoch: 59618

The dashed part of the orbit path shows where the satellite is in the earth's shadow,  

DLR